Location: ??
(34.7252°N, 135.5457°E)
Time: 07:49:54
(UTC+00:00)

Cosmos 1437 Rocket - Pass Details

Date: 24 September 2020
Orbit: 506 x 562 km, 81.2° (Epoch: 28 October)

Event Time Altitude Azimuth Distance (km) Brightness Sun altitude
Exits shadow 19:13:03 13° 178° (S) 1,531 5.0 -20.2°
Maximum altitude 19:16:19 67° 97° (E) 557 3.0 -19.5°
Drops below altitude 10° 19:20:08 10° 14° (NNE) 1,751 5.7 -18.7°
Sets 19:22:18 0° 12° (NNE) 2,651 6.6 -18.3°
